Hourly Data Report for September 13, 2017

All times are specified in Local Standard Time (LST). Add 1 hour to adjust for Daylight Saving Time where and when it is observed.

CORAL HARBOUR A
NUNAVUT

64°11'36.000" N
83°21'34.000" W
62.20 m
2301002
71915
YZS

Download Data

Hourly Data (September 2017)
Hourly Data Report for September 13, 2017
Temp Definition
°C
Dew Point Temp Definition
°C
Rel Hum Definition
%
Wind Dir Definition
10's deg

Wind Spd Definition
km/h
Visibility Definition
km
Stn Press Definition
kPa
Hmdx Definition


Wind Chill Definition


Weather Definition


TIME
00:00 Legend Double Dagger 1.3 -0.6 87 2 46 24.1 99.45     LegendNANA
01:00 Legend Double Dagger 1.4 -0.7 86 2 51 24.1 99.44     Mainly Clear
02:00 Legend Double Dagger 1.4 -0.6 86 2 49 24.1 99.45     LegendNANA
03:00 Legend Double Dagger 1.3 -0.8 86 2 58 24.1 99.47     LegendNANA
04:00 Legend Double Dagger 1.1 -0.6 88 2 53 24.1 99.56     Mainly Clear
05:00 Legend Double Dagger 1.2 -0.7 87 3 48 24.1 99.65     LegendNANA
06:00 Legend Double Dagger 1.4 -0.8 86 3 38 24.1 99.75     LegendNANA
07:00 Legend Double Dagger 1.4 -0.7 86 1 22 24.1 99.89     Mainly Clear
08:00 Legend Double Dagger 1.3 -0.8 86 2 27 24.1 99.93     LegendNANA
09:00 Legend Double Dagger 2.0 -0.6 83 2 39 24.1 99.95     LegendNANA
10:00 Legend Double Dagger 2.5 -0.2 83 2 49 24.1 99.93     Mainly Clear
11:00 Legend Double Dagger 3.1 -0.2 79 2 46 24.1 99.98     LegendNANA
12:00 Legend Double Dagger 3.0 -0.6 77 2 62 24.1 99.97     LegendNANA
13:00 Legend Double Dagger 3.3 -0.5 76 2 52 24.1 100.04     Mainly Clear
14:00 Legend Double Dagger 3.2 -0.3 78 2 48 24.1 100.09     LegendNANA
15:00 Legend Double Dagger 3.1 -0.7 76 2 50 24.1 100.12     LegendNANA
16:00 Legend Double Dagger 2.9 -1.2 74 2 54 24.1 100.13     Mainly Clear
17:00 Legend Double Dagger 2.2 -1.0 79 2 54 24.1 100.17     LegendNANA
18:00 Legend Double Dagger 1.4 -1.3 82 2 37 24.1 100.27     LegendNANA
19:00 Legend Double Dagger 1.1 -1.5 83 2 39 24.1 100.28     Mainly Clear
20:00 Legend Double Dagger 0.9 -1.7 83 2 40 24.1 100.30     LegendNANA
21:00 Legend Double Dagger 0.9 -1.9 82 2 46 24.1 100.30     LegendNANA
22:00 Legend Double Dagger 0.5 -2.7 79 1 43 24.1 100.27     Mainly Clear
23:00 Legend Double Dagger 0.3 -3.2 77 2 48 24.1 100.26     LegendNANA

Notes on Data Quality.

Legend

  • E = Estimated
  • M = Missing
  • NA = Not Available
  • ‡ = Partner data that is not subject to review by the National Climate Archives
Date modified: